Location: Unspecified
(0.0000°N, 0.0000°E)
Time: 06:03:24
(UTC+00:00)

AAUSAT CUBESAT 2 - Pass Details

Date: 19 July 2020
Orbit: 574 x 589 km, 97.5° (Epoch: 13 August)

Event Time Altitude Azimuth Distance (km) Brightness Sun altitude
Rises 18:35:10 0° 201° (SSW) 2,785 ? -6.7°
Reaches altitude 10° 18:38:13 10° 226° (SW) 1,886 ? -7.4°
Maximum altitude 18:40:22 14° 258° (WSW) 1,636 ? -7.9°
Drops below altitude 10° 18:42:32 10° 291° (WNW) 1,885 ? -8.4°
Sets 18:45:36 0° 316° (NW) 2,784 ? -9.2°
